sat.trackr.live / text

‹ back to catalog

STARLINK-35285

NORAD 65807 · 2025-218S

PAYLOAD ACTIVE UNKNOWN

§ Identity

Operator
Country
US
Launch date
2025-09-26
Launch site
AFWTR
Launch vehicle
Mass (kg)
RCS (m²)

Purposes: comms

External: N2YO · Heavens-Above · Gunter

§ Orbital elements

Epoch: 2026-09-20T13:49:49.174176Z

Period
93.91 min
Inclination
97.2813°
Eccentricity
0.0001288
Mean motion
15.33459302 rev/d
Perigee alt
464.6 km
Apogee alt
466.4 km
Semi-major
6,843.6 km
B*
3.6200e-4
RAAN
120.9227°
Arg perigee
66.1328°
Mean anomaly
294.0049°
Rev number
5,433

§ Raw data

STARLINK-352851 65807U 25218S   26263.57626359  .00011635  00000+0  36200-3 0  99952 65807  97.2813 120.9227 0001288  66.1328 294.0049 15.33459302 54334

JSON: /api/v1/satellites/65807 · /tle

For live sub-satellite position, see the globe view (requires WebGL).

§ Visibility from observer

Set your observer location to see the next 7 days of passes ≥ 10°. The values pass through the URL so the page stays shareable.

No JS? Fill the form by hand. The geolocation button needs JavaScript.